Location: Newark
(15.4608°S, 41.1635°W)
Time: 23:38:41
(UTC+00:00)

Vanguard 3 - Pass Details

Date: 05 August 2021
Orbit: 510 x 3260 km, 33.3° (Epoch: 20 September)

Event Time Altitude Azimuth Distance (km) Brightness Sun altitude
Rises 12:48:18 0° 227° (SW) 2,641 9.4 45.8°
Reaches altitude 10° 12:50:36 10° 215° (SW) 1,729 8.5 46.2°
Maximum altitude 12:53:56 31° 151° (SSE) 968 7.8 46.8°
Drops below altitude 10° 12:57:52 10° 87° (E) 2,048 9.8 47.4°
Sets 13:00:51 0° 77° (ENE) 3,239 10.8 47.9°
